DW5608 Weather Reports


Display with metric or nautical units.
time (UTC)temp
F
wind
direction
speed
MPH
gust
MPH
rain 1hr
in
rain 24hr
in
rain mn
in
humidity
%
barometer
mb
20190116155250 43 282 10.0 14.0 0.00 0.00 0.00 69 1013.5
20190116154249 43 210 7.0 10.0 0.00 0.00 0.00 69 1013.5
20190116153248 43 259 3.0 16.0 0.00 0.00 0.00 68 1013.5
20190116152247 43 262 4.0 10.0 0.00 0.00 0.00 68 1013.5
20190116151245 44 227 5.0 11.0 0.00 0.00 0.00 67 1013.5
20190116150244 44 247 6.0 14.0 0.00 0.00 0.00 67 1013.5
20190116145243 44 238 4.0 15.0 0.00 0.00 0.00 66 1013.5
20190116144242 44 218 5.0 10.0 0.00 0.00 0.00 66 1013.5
20190116143239 44 290 3.0 11.0 0.00 0.00 0.00 65 1013.5
20190116142237 45 261 8.0 19.0 0.00 0.00 0.00 64 1013.5
20190116141235 45 219 9.0 19.0 0.00 0.00 0.00 64 1013.9
20190116140233 45 257 7.0 17.0 0.00 0.00 0.00 64 1013.9
20190116135230 45 239 5.0 13.0 0.00 0.00 0.00 63 1013.9
20190116134228 45 232 4.0 19.0 0.00 0.00 0.00 63 1013.9
20190116133226 45 245 10.0 17.0 0.00 0.00 0.00 63 1013.5
20190116132224 45 245 7.0 22.0 0.00 0.00 0.00 62 1013.9
20190116131204 45 196 9.0 16.0 0.00 0.00 0.00 61 1013.9
20190116130202 46 248 6.0 16.0 0.00 0.00 0.00 61 1013.9
20190116125159 46 215 8.0 18.0 0.00 0.00 0.00 60 1013.9
20190116124157 46 245 9.0 16.0 0.00 0.00 0.00 59 1013.9
20190116123156 46 238 9.0 18.0 0.00 0.00 0.00 59 1013.9
20190116122155 46 232 5.0 15.0 0.00 0.00 0.00 58 1013.9
20190116121154 45 217 9.0 17.0 0.00 0.00 0.00 58 1013.9
20190116120153 45 246 8.0 14.0 0.00 0.00 0.00 57 1014.2
20190116115151 45 248 9.0 16.0 0.00 0.00 0.00 56 1013.9
20190116114149 46 224 9.0 21.0 0.00 0.00 0.00 54 1014.2
20190116113148 45 252 9.0 16.0 0.00 0.00 0.00 54 1014.2
20190116112146 45 234 4.0 15.0 0.00 0.00 0.00 55 1014.2
20190116111144 45 245 5.0 10.0 0.00 0.00 0.00 56 1014.2
20190116110143 45 217 4.0 8.0 0.00 0.00 0.00 57 1014.6
20190116105140 45 193 4.0 7.0 0.00 0.00 0.00 56 1014.6
20190116104050 45 211 7.0 10.0 0.00 0.00 0.00 55 1014.6
20190116103047 45 217 6.0 11.0 0.00 0.00 0.00 55 1014.6
20190116102045 45 228 4.0 10.0 0.00 0.00 0.00 56 1014.9
20190116101043 44 221 4.0 10.0 0.00 0.00 0.00 56 1014.6
20190116100042 44 224 5.0 15.0 0.00 0.00 0.00 57 1014.9
20190116095041 44 220 6.0 14.0 0.00 0.00 0.00 59 1014.9
20190116094040 43 195 8.0 14.0 0.00 0.00 0.00 60 1014.9
20190116093038 43 205 7.0 12.0 0.00 0.00 0.00 62 1015.2
20190116092035 42 220 7.0 11.0 0.00 0.00 0.00 64 1015.2
20190116091033 42 200 4.0 6.0 0.00 0.00 0.00 67 1015.2
20190116090032 41 223 5.0 10.0 0.00 0.00 0.00 67 1015.2
20190116085028 41 198 5.0 9.0 0.00 0.00 0.00 68 1015.2
20190116084026 40 234 6.0 12.0 0.00 0.00 0.00 71 1015.2
20190116083024 40 209 6.0 12.0 0.00 0.00 0.00 72 1015.2
20190116082023 39 218 5.0 8.0 0.00 0.00 0.00 73 1015.2
20190116081022 39 263 2.0 10.0 0.00 0.00 0.00 74 1015.2
20190116080020 39 255 3.0 8.0 0.00 0.00 0.00 75 1014.9
20190116075019 39 259 1.0 7.0 0.00 0.00 0.00 76 1014.9
20190116074018 39 259 3.0 8.0 0.00 0.00 0.00 76 1014.9
20190116073017 39 270 1.0 11.0 0.00 0.00 0.00 76 1014.9
20190116072016 39 192 3.0 6.0 0.00 0.00 0.00 76 1014.9
20190116071014 38 208 4.0 8.0 0.00 0.00 0.00 77 1014.6
20190116070013 38 229 4.0 10.0 0.00 0.00 0.00 77 1014.6
20190116065011 38 261 2.0 6.0 0.00 0.00 0.00 77 1014.6
20190116064010 38 240 2.0 5.0 0.00 0.00 0.00 77 1014.6
20190116063009 38 239 2.0 5.0 0.00 0.00 0.00 77 1014.6
20190116062006 38 218 3.0 9.0 0.00 0.00 0.00 77 1014.6
20190116061004 38 288 2.0 7.0 0.00 0.00 0.00 77 1014.2
20190116060002 38 306 1.0 5.0 0.00 0.00 0.00 76 1014.6
20190116054959 39 135 0.0 4.0 0.00 0.00 0.00 76 1014.6
20190116053958 39 286 1.0 7.0 0.00 0.00 0.00 76 1014.6
20190116052955 39 238 2.0 6.0 0.00 0.00 0.00 75 1014.2
20190116051954 39 225 1.0 11.0 0.00 0.00 0.00 75 1014.2
20190116050953 39 216 4.0 10.0 0.00 0.00 0.00 76 1014.2
20190116045952 39 250 5.0 10.0 0.00 0.00 0.00 77 1014.2
20190116044950 39 214 7.0 13.0 0.00 0.00 0.00 77 1014.2
20190116043948 39 228 5.0 12.0 0.00 0.00 0.00 78 1014.2
20190116042946 38 248 3.0 8.0 0.00 0.00 0.00 77 1014.2
20190116041945 38 290 3.0 7.0 0.00 0.00 0.00 78 1014.2
20190116040936 38 270 1.0 5.0 0.00 0.00 0.00 77 1014.2
20190116035934 38 213 2.0 5.0 0.00 0.00 0.00 77 1014.2
20190116034933 38 302 1.0 7.0 0.00 0.00 0.00 78 1014.2
20190116033932 38 266 0.0 4.0 0.00 0.00 0.00 78 1014.2
20190116032931 38 201 3.0 7.0 0.00 0.00 0.00 77 1014.2
20190116031930 38 268 3.0 7.0 0.00 0.00 0.00 77 1014.6
20190116030929 37 233 4.0 7.0 0.00 0.00 0.00 77 1014.6
20190116025928 37 209 2.0 5.0 0.00 0.00 0.00 77 1014.6
20190116024926 37 66 1.0 2.0 0.00 0.00 0.00 77 1014.6
20190116023924 37 167 4.0 5.0 0.00 0.00 0.00 77 1014.6
20190116022923 37 294 1.0 7.0 0.00 0.00 0.00 78 1014.9
20190116021921 37 256 2.0 4.0 0.00 0.00 0.00 77 1014.9
20190116020920 37 207 2.0 4.0 0.00 0.00 0.00 77 1014.9
20190116015917 38 226 3.0 6.0 0.00 0.00 0.00 77 1014.9
20190116014915 37 213 4.0 8.0 0.00 0.00 0.00 77 1014.9
20190116013914 37 233 3.0 9.0 0.00 0.00 0.00 78 1014.9
20190116012911 35 241 7.0 12.0 0.00 0.00 0.00 78 1014.9
20190116011908 35 334 2.0 5.0 0.00 0.00 0.00 77 1014.9
20190116010907 35 225 1.0 7.0 0.00 0.00 0.00 78 1014.9
20190116005905 35 201 1.0 4.0 0.00 0.00 0.00 77 1014.9
20190116004904 34 220 3.0 5.0 0.00 0.00 0.00 78 1015.2
20190116003903 34 162 2.0 4.0 0.00 0.00 0.00 78 1015.2
20190116002901 34 165 0.0 3.0 0.00 0.00 0.00 77 1015.2
20190116001900 34 135 0.0 2.0 0.00 0.00 0.00 76 1015.2
20190116000858 35 270 1.0 2.0 0.00 0.00 0.00 74 1015.6
20190115235857 36 293 0.0 4.0 0.00 0.00 0.00 75 1015.6
20190115234855 35 257 2.0 5.0 0.00 0.00 0.00 76 1015.2
20190115233854 34 221 2.0 4.0 0.00 0.00 0.00 75 1015.2
20190115232851 34 268 2.0 4.0 0.00 0.00 0.00 74 1015.2
20190115231851 35 270 1.0 5.0 0.00 0.00 0.00 74 1015.2
20190115230848 36 230 2.0 3.0 0.00 0.00 0.00 72 1015.2
20190115225847 37 227 2.0 8.0 0.00 0.00 0.00 72 1015.2
20190115224846 37 205 6.0 8.0 0.00 0.00 0.00 72 1015.2
20190115223845 36 225 3.0 7.0 0.00 0.00 0.00 73 1015.2
20190115222842 37 185 2.0 5.0 0.00 0.00 0.00 72 1015.6
20190115221840 37 211 3.0 7.0 0.00 0.00 0.00 72 1015.6
20190115220838 37 213 4.0 10.0 0.00 0.00 0.00 72 1015.6
20190115215836 37 226 5.0 10.0 0.00 0.00 0.00 74 1015.6
20190115214833 35 220 5.0 12.0 0.00 0.00 0.00 77 1015.6
20190115213831 31 221 5.0 8.0 0.00 0.00 0.00 82 1015.6
20190115212829 30 192 1.0 3.0 0.00 0.00 0.00 76 1015.6
20190115211827 30 132 2.0 4.0 0.00 0.00 0.00 76 1015.6
20190115210825 30 137 3.0 4.0 0.00 0.00 0.00 76 1015.6
20190115205824 30 293 0.0 1.0 0.00 0.00 0.00 75 1015.6
20190115204820 30 293 0.0 1.0 0.00 0.00 0.00 75 1015.6
20190115203818 30 270 0.0 3.0 0.00 0.00 0.00 75 1015.6
20190115202815 30 167 2.0 4.0 0.00 0.00 0.00 75 1015.6
20190115201811 30 151 2.0 5.0 0.00 0.00 0.00 75 1015.2
20190115200810 29 137 2.0 5.0 0.00 0.00 0.00 76 1014.9
20190115195808 29 117 1.0 4.0 0.00 0.00 0.00 77 1014.9
20190115194807 29 135 1.0 4.0 0.00 0.00 0.00 76 1015.2
20190115193806 29 170 1.0 3.0 0.00 0.00 0.00 75 1015.2
20190115192805 30 135 2.0 2.0 0.00 0.00 0.00 74 1015.2
20190115191804 30 225 0.0 2.0 0.00 0.00 0.00 73 1015.2
20190115190802 31 294 1.0 3.0 0.00 0.00 0.00 72 1015.2
20190115185759 31 178 1.0 2.0 0.00 0.00 0.00 72 1014.9
20190115184757 32 158 0.0 4.0 0.00 0.00 0.00 71 1014.9
20190115183755 33 150 2.0 4.0 0.00 0.02 0.00 71 1015.2
20190115182754 33 142 1.0 3.0 0.00 0.02 0.00 69 1015.2
20190115181753 35 151 3.0 4.0 0.00 0.05 0.00 67 1015.2
20190115180752 35 203 2.0 4.0 0.00 0.05 0.00 65 1015.2
20190115175749 36 252 1.0 3.0 0.00 0.05 0.00 64 1014.9
20190115174746 36 256 1.0 4.0 0.00 0.05 0.00 63 1014.9
20190115173744 36 245 2.0 4.0 0.00 0.05 0.00 62 1014.9
20190115172742 37 225 1.0 4.0 0.00 0.05 0.00 62 1014.9
20190115171740 37 225 1.0 5.0 0.00 0.05 0.00 61 1014.9
20190115170737 37 257 1.0 7.0 0.00 0.05 0.00 61 1014.9
20190115165736 37 266 3.0 5.0 0.00 0.05 0.00 61 1014.6
20190115164735 38 248 1.0 4.0 0.00 0.05 0.00 61 1014.6
20190115163734 38 248 1.0 3.0 0.00 0.05 0.00 59 1014.6
20190115162732 39 245 2.0 12.0 0.00 0.05 0.00 58 1014.6
20190115161732 39 269 3.0 11.0 0.00 0.05 0.00 58 1014.6
20190115160730 39 292 5.0 11.0 0.00 0.05 0.00 58 1014.6